Tracking 28790 objects as of 19-Apr-2024
HD Live streaming from Space Station
objects crossing your sky now

METEOR 3-1 DEB

Track METEOR 3-1 DEB now!
10-day predictions


NORAD ID: 29136
Int'l Code: 1985-100C
Perigee: 1,151.0 km
Apogee: 1,209.1 km
Inclination: 82.6 °
Period: 108.8 minutes
Semi major axis: 7551 km
RCS: 0.0085 m2 (small)
Launch date: October 24, 1985
Source: Commonwealth of Independent States (former USSR) (CIS)
Launch site: PLESETSK MISSILE AND SPACE COMPLEX (PKMTR)

Note: This is SATELLITE DEBRIS
Your satellite tracking list
Your tracking list is empty




NASA's NSSDC Master Catalog

Two Line Element Set (TLE):
1 29136U 85100C   24107.56217207  .00000250  00000-0  56058-3 0  9993
2 29136  82.5516 204.5845 0038510  73.8809 300.8137 13.23093963 20531
Source of the keplerian elements: AFSPC